Flag for Japan Weather past 2 weeks in Sendai, Japan

Now
81 °F

Passing clouds.


Feels Like: 87 °F
Forecast: 72 / 92 °F
Wind: 3 mph from North

Location: Sendai Airport

Current Time: Jul 26, 2014 at 8:50:58 PM

Latest Report: Jul 26, 2014 at 8:00 PM


Visibility: 4 mi

Pressure: 29.74 "Hg

Humidity: 89%

Dew point: 77 °F

Location of SendaiLocation

Historic Weather in Sendai — Graph

°F

Sendai temperature yesterday

Maximum temperature yesterday: 86 °F (at 4:00 PM)
Minimum temperature yesterday: 75 °F (at 6:00 AM)
Average temperature yesterday: 82 °F

Past Weeks' High & Low Weather Summary

 TemperatureHumidityPressure
High86 °F (Jul 14, 2:00 PM)100% (Jul 13, 6:00 PM)29.98 "Hg (Jul 13, 6:00 PM)
Low66 °F (Jul 20, 6:00 AM)49% (Jul 14, 2:00 PM)29.42 "Hg (Jul 11, 7:00 PM)
Average75 °F84%29.80 "Hg
* Reported Jul 11 7:00 PM — Jul 26 7:00 PM, Sendai, Weather by CustomWeather, © 2014

Note: Actual official high and low records may vary slightly from our data, if they occured in-between our weather recording intervals... More about our weather records

Advertising

Sendai weather history for previous 24 hours

 ConditionsComfort  
Time TempWeatherWind HumidityBarometerVisibility
7:00 PM
Jul 26
82 °FPassing clouds.3 mph84%29.74 "Hg4 mi
6:00 PM82 °FPassing clouds.6 mph84%29.74 "Hg4 mi
5:00 PM84 °FPassing clouds.7 mph79%29.74 "Hg5 mi
4:00 PM81 °FPassing clouds.7 mph89%29.77 "HgN/A
3:00 PM81 °FPartly sunny.9 mph89%29.77 "HgN/A
2:00 PM81 °FLight fog.8 mph84%29.80 "HgN/A
1:00 PM79 °FLight fog.8 mph89%29.83 "HgN/A
12:00 PM79 °FPassing clouds.10 mph84%29.86 "HgN/A
11:00 AM79 °FPassing clouds.8 mph84%29.86 "HgN/A
10:00 AM79 °FPassing clouds.8 mph79%29.89 "HgN/A
9:00 AM79 °FScattered clouds.7 mph79%29.89 "HgN/A
8:00 AM79 °FPartly sunny.7 mph79%29.89 "HgN/A
7:00 AM77 °FScattered clouds.5 mph83%29.89 "HgN/A
6:00 AM75 °FScattered clouds.3 mph89%29.89 "HgN/A
9:00 PM
Jul 25
79 °FPassing clouds.5 mph84%29.92 "HgN/A
8:00 PM79 °FPassing clouds.5 mph84%29.89 "HgN/A
Weather by CustomWeather, © 2014

See weather overviewHow to use our weather pages